When you browse on this site, cookies collect data to enhance your experience and personalize the content and advertising you see.
Visit our Privacy Policy to learn more. By continuing to use the site, you agree to this use of cookies and data.
  • In Czech Republic
  • List of Countries
  • For 7 days
  • Water Temperature
  • Satellite Maps
  • Weather Map
  • Weather Widgets
  • user-avatar
    Login

    Hourly Weather Novye Maksimovichi

    Today, 23 May, Thursday

    Time Temperature Precipitation Wind Pressure Humidity
    00:00 +16°C° 0 mm 1 mps 742 mmHg 72%
    01:00 +15°C° 0 mm 1 mps 742 mmHg 76%
    02:00 +14°C° 0 mm 1 mps 741 mmHg 80%
    03:00 +14°C° 0 mm 1 mps 741 mmHg 80%
    04:00 +14°C° 0 mm 1 mps 741 mmHg 81%
    05:00 +14°C° 0 mm 1 mps 741 mmHg 82%
    06:00 +16°C° 0 mm 1 mps 742 mmHg 75%
    07:00 +20°C° 0 mm 1 mps 742 mmHg 67%
    08:00 +22°C° 0 mm 1 mps 742 mmHg 60%
    09:00 +23°C° 0 mm 1 mps 742 mmHg 55%
    10:00 +24°C° 0 mm 2 mps 742 mmHg 50%
    11:00 +25°C° 0 mm 2 mps 742 mmHg 45%
    12:00 +25°C° 0 mm 2 mps 742 mmHg 45%
    13:00 +26°C° 0 mm 2 mps 742 mmHg 45%
    14:00 +26°C° 0 mm 2 mps 742 mmHg 45%
    15:00 +26°C° 0 mm 2 mps 742 mmHg 47%
    16:00 +25°C° 0 mm 2 mps 741 mmHg 49%
    17:00 +25°C° 0 mm 2 mps 741 mmHg 51%
    18:00 +23°C° 0 mm 2 mps 741 mmHg 58%
    19:00 +21°C° 0 mm 2 mps 741 mmHg 65%
    20:00 +20°C° 0 mm 1 mps 741 mmHg 72%
    21:00 +19°C° 0 mm 1 mps 741 mmHg 74%
    22:00 +17°C° 0 mm 2 mps 741 mmHg 76%
    23:00 +16°C° 0 mm 2 mps 741 mmHg 79%

    Tomorrow, 24 May, Friday

    Time Temperature Precipitation Wind Pressure Humidity
    00:00 +16°C° 0 mm 2 mps 741 mmHg 81%
    01:00 +15°C° 0 mm 1 mps 741 mmHg 84%
    02:00 +15°C° 0 mm 1 mps 741 mmHg 86%
    03:00 +15°C° 0 mm 1 mps 741 mmHg 86%
    04:00 +15°C° 0 mm 1 mps 741 mmHg 87%
    05:00 +15°C° 0 mm 1 mps 742 mmHg 87%
    06:00 +18°C° 0 mm 1 mps 742 mmHg 80%
    07:00 +20°C° 0 mm 1 mps 742 mmHg 73%
    08:00 +22°C° 0 mm 1 mps 742 mmHg 65%
    09:00 +24°C° 0.1 mm 1 mps 742 mmHg 59%
    10:00 +25°C° 0.1 mm 2 mps 742 mmHg 53%
    11:00 +26°C° 0.1 mm 2 mps 742 mmHg 47%
    12:00 +26°C° 0.1 mm 2 mps 742 mmHg 48%
    13:00 +26°C° 0.1 mm 2 mps 742 mmHg 50%
    14:00 +26°C° 0.1 mm 2 mps 741 mmHg 52%
    15:00 +25°C° 0.6 mm 2 mps 741 mmHg 56%
    16:00 +25°C° 0.6 mm 2 mps 741 mmHg 60%
    17:00 +24°C° 0.6 mm 2 mps 741 mmHg 65%
    18:00 +23°C° 0.2 mm 2 mps 741 mmHg 71%
    19:00 +21°C° 0.2 mm 1 mps 741 mmHg 77%
    20:00 +19°C° 0.2 mm 1 mps 741 mmHg 83%
    21:00 +19°C° 0.5 mm 1 mps 741 mmHg 86%
    22:00 +18°C° 0.5 mm 1 mps 740 mmHg 89%
    23:00 +16°C° 0.5 mm 1 mps 740 mmHg 93%

    Day after tomorrow, 25 May, Saturday

    Time Temperature Precipitation Wind Pressure Humidity
    00:00 +16°C° 0.1 mm 1 mps 740 mmHg 93%
    01:00 +16°C° 0.1 mm 1 mps 740 mmHg 93%
    02:00 +14°C° 0.1 mm 0 mps 740 mmHg 94%
    03:00 +15°C° 0 mm 1 mps 740 mmHg 94%
    04:00 +15°C° 0 mm 1 mps 740 mmHg 95%
    05:00 +15°C° 0 mm 1 mps 740 mmHg 95%
    06:00 +16°C° 0 mm 1 mps 740 mmHg 92%
    07:00 +18°C° 0 mm 1 mps 740 mmHg 90%
    08:00 +19°C° 0 mm 1 mps 740 mmHg 87%
    09:00 +20°C° 0.6 mm 2 mps 740 mmHg 81%
    10:00 +21°C° 0.6 mm 2 mps 740 mmHg 76%
    11:00 +23°C° 0.6 mm 2 mps 740 mmHg 71%
    12:00 +23°C° 1 mm 2 mps 739 mmHg 73%
    13:00 +21°C° 1 mm 2 mps 739 mmHg 74%
    14:00 +21°C° 1 mm 2 mps 739 mmHg 76%
    15:00 +21°C° 0.5 mm 2 mps 739 mmHg 74%
    16:00 +21°C° 0.5 mm 2 mps 739 mmHg 71%
    17:00 +21°C° 0.5 mm 3 mps 738 mmHg 69%
    18:00 +20°C° 0 mm 3 mps 739 mmHg 72%
    19:00 +18°C° 0 mm 3 mps 739 mmHg 75%
    20:00 +17°C° 0 mm 2 mps 739 mmHg 79%
    21:00 +16°C° 0 mm 3 mps 739 mmHg 82%
    22:00 +14°C° 0 mm 3 mps 739 mmHg 86%
    23:00 +13°C° 0 mm 3 mps 739 mmHg 90%

    26 May, Sunday

    Time Temperature Precipitation Wind Pressure Humidity
    00:00 +12°C° 0 mm 3 mps 739 mmHg 91%
    01:00 +11°C° 0 mm 3 mps 739 mmHg 92%
    02:00 +10°C° 0 mm 3 mps 739 mmHg 93%
    03:00 +10°C° 0 mm 3 mps 740 mmHg 93%
    04:00 +9°C° 0 mm 2 mps 740 mmHg 92%
    05:00 +8°C° 0 mm 2 mps 740 mmHg 91%
    06:00 +10°C° 0 mm 3 mps 740 mmHg 84%
    07:00 +12°C° 0 mm 3 mps 740 mmHg 76%
    08:00 +14°C° 0 mm 4 mps 740 mmHg 69%
    09:00 +15°C° 0 mm 4 mps 740 mmHg 64%
    10:00 +17°C° 0 mm 4 mps 740 mmHg 58%
    11:00 +19°C° 0 mm 4 mps 740 mmHg 53%
    12:00 +19°C° 0 mm 5 mps 739 mmHg 52%
    13:00 +20°C° 0 mm 5 mps 739 mmHg 51%
    14:00 +20°C° 0 mm 5 mps 738 mmHg 50%
    15:00 +19°C° 0.4 mm 6 mps 738 mmHg 59%
    16:00 +17°C° 0.4 mm 6 mps 738 mmHg 69%
    17:00 +15°C° 0.4 mm 6 mps 738 mmHg 78%
    18:00 +14°C° 0.3 mm 5 mps 738 mmHg 83%
    19:00 +12°C° 0.3 mm 4 mps 738 mmHg 87%
    20:00 +10°C° 0.3 mm 4 mps 738 mmHg 92%
    21:00 +8°C° 0.1 mm 4 mps 739 mmHg 92%
    22:00 +8°C° 0.1 mm 4 mps 739 mmHg 93%
    23:00 +7°C° 0.1 mm 4 mps 739 mmHg 93%

    27 May, Monday

    Time Temperature Precipitation Wind Pressure Humidity
    00:00 +7°C° 0 mm 4 mps 739 mmHg 93%
    01:00 +6°C° 0 mm 4 mps 739 mmHg 93%
    02:00 +6°C° 0 mm 4 mps 739 mmHg 93%
    03:00 +6°C° 0 mm 4 mps 740 mmHg 92%
    04:00 +6°C° 0 mm 4 mps 740 mmHg 92%
    05:00 +6°C° 0 mm 4 mps 740 mmHg 91%
    06:00 +7°C° 0.1 mm 5 mps 741 mmHg 87%
    07:00 +8°C° 0.1 mm 5 mps 741 mmHg 82%
    08:00 +9°C° 0.1 mm 6 mps 742 mmHg 78%
    09:00 +10°C° 0 mm 6 mps 742 mmHg 74%
    10:00 +11°C° 0 mm 6 mps 743 mmHg 70%
    11:00 +13°C° 0 mm 5 mps 743 mmHg 66%
    12:00 +13°C° 0 mm 5 mps 743 mmHg 64%
    13:00 +14°C° 0 mm 5 mps 744 mmHg 62%
    14:00 +15°C° 0 mm 4 mps 744 mmHg 60%
    15:00 +17°C° 0 mm 4 mps 744 mmHg 61%
    16:00 +17°C° 0 mm 4 mps 744 mmHg 61%
    17:00 +17°C° 0 mm 4 mps 744 mmHg 61%
    18:00 +16°C° 0 mm 3 mps 744 mmHg 68%
    19:00 +14°C° 0 mm 2 mps 744 mmHg 76%
    20:00 +13°C° 0 mm 1 mps 744 mmHg 83%
    21:00 +12°C° 0 mm 2 mps 745 mmHg 86%
    22:00 +10°C° 0 mm 2 mps 745 mmHg 89%
    23:00 +10°C° 0 mm 2 mps 745 mmHg 92%

    28 May, Tuesday

    Time Temperature Precipitation Wind Pressure Humidity
    00:00 +9°C° 0 mm 2 mps 745 mmHg 92%
    01:00 +9°C° 0 mm 2 mps 745 mmHg 93%
    02:00 +9°C° 0 mm 2 mps 745 mmHg 93%
    03:00 +10°C° 0 mm 2 mps 745 mmHg 91%
    04:00 +10°C° 0 mm 3 mps 745 mmHg 88%
    05:00 +10°C° 0 mm 3 mps 745 mmHg 86%
    06:00 +12°C° 0 mm 3 mps 744 mmHg 79%
    07:00 +14°C° 0 mm 4 mps 744 mmHg 73%
    08:00 +16°C° 0 mm 5 mps 744 mmHg 66%
    09:00 +16°C° 1.2 mm 5 mps 744 mmHg 74%
    10:00 +15°C° 1.2 mm 5 mps 743 mmHg 82%
    11:00 +15°C° 1.2 mm 5 mps 743 mmHg 90%
    12:00 +15°C° 4.9 mm 5 mps 742 mmHg 91%
    13:00 +15°C° 4.9 mm 5 mps 742 mmHg 93%
    14:00 +14°C° 4.9 mm 6 mps 741 mmHg 94%
    15:00 +16°C° 0.3 mm 5 mps 741 mmHg 90%
    16:00 +19°C° 0.3 mm 5 mps 740 mmHg 86%
    17:00 +21°C° 0.3 mm 5 mps 740 mmHg 82%
    18:00 +20°C° 1.2 mm 4 mps 740 mmHg 86%
    19:00 +19°C° 1.2 mm 3 mps 740 mmHg 90%
    20:00 +18°C° 1.2 mm 3 mps 740 mmHg 94%
    21:00 +18°C° 0.3 mm 3 mps 740 mmHg 94%
    22:00 +17°C° 0.3 mm 3 mps 740 mmHg 95%
    23:00 +17°C° 0.3 mm 3 mps 740 mmHg 95%
    Show more